Weather History for Wenatchee, WA

Change the Weather History Date:

Sunday, September 22, 2013

  Actual Average Record
Temperature  
Mean Temperature 53 °F 55 °F  
Max Temperature 63 °F 70 °F 90 °F (1966)
Min Temperature 42 °F 40 °F 32 °F (2010)
Degree Days  
Heating Degree Days 12 10  
Month to date heating degree days 57 151  
Since 1 July heating degree days 81 262  
Cooling Degree Days 0 0  
Month to date cooling degree days 69 14  
Year to date cooling degree days 383 247  
Growing Degree Days 7 (Base 50)    
Moisture  
Dew Point 44 °F    
Average Humidity 65    
Maximum Humidity 90    
Minimum Humidity 37    
Precipitation  
Precipitation 0.09 in 0.03 in 1.36 in (1984)
Month to date precipitation 0.68 0.45  
Year to date precipitation 9.34 10.87  
Snow  
Snow 0.00 in 0.00 in - ()
Month to date snowfall 0.0 0.0  
Since 1 July snowfall 0.0 0.0  
Since 1 September snowfall 0.0 0.0  
Snow Depth 0.00 in    
Sea Level Pressure  
Sea Level Pressure 29.64 in    
Wind  
Wind Speed 5 mph (NNW)    
Max Wind Speed 13 mph    
Max Gust Speed 17 mph    
Visibility 10 miles    
Events Rain    
T = Trace of Precipitation, MM = Missing Value Source: NWS Daily Summary

Daily Weather History Graph

Daily Weather History Graph

Search for Another Location

Airport:

Trip Planner

Search our weather history database for the weather conditions in past years. The results will help you decide how hot, cold, wet, or windy it might be!

Date:

Astronomy

Sep. 22, 2013 Rise Set
Actual Time 6:48 AM PDT 6:57 PM PDT
Civil Twilight 6:17 AM PDT 7:28 PM PDT
Nautical Twilight 5:41 AM PDT 8:04 PM PDT
Astronomical Twilight 5:04 AM PDT 8:41 PM PDT
Moon 8:33 PM PDT (9/22) 10:29 AM PDT (9/22)
Length of Visible Light 13h 10m
Length of Day
12h 09m
Waning Gibbous, 88% of the Moon is Illuminated
Sep 22
Waning Gibbous
Sep 26
Last Quarter
Oct 4
New
Oct 11
First Quarter
Oct 18
Full

Hourly Weather History & Observations

Time (PDT) Temp. Dew Point Humidity Pressure Visibility Wind Dir Wind Speed Gust Speed Precip Events Conditions
12:55 AM 57.0 °F 41.0 °F 55% 29.63 in 10.0 mi NW 6.9 mph - N/A   Clear
1:55 AM 55.9 °F 41.0 °F 57% 29.64 in 10.0 mi West 5.8 mph - N/A   Clear
2:55 AM 55.0 °F 41.0 °F 59% 29.64 in 10.0 mi WNW 5.8 mph - N/A   Clear
3:55 AM 54.0 °F 42.1 °F 64% 29.64 in 10.0 mi Calm Calm - N/A   Clear
4:55 AM 51.1 °F 42.1 °F 71% 29.64 in 10.0 mi NE 3.5 mph - N/A   Clear
5:55 AM 50.0 °F 42.1 °F 74% 29.64 in 10.0 mi ENE 4.6 mph - N/A   Clear
6:55 AM 50.0 °F 43.0 °F 77% 29.65 in 10.0 mi NE 3.5 mph - N/A   Clear
7:55 AM 52.0 °F 44.1 °F 74% 29.65 in 10.0 mi Calm Calm - N/A   Clear
8:55 AM 59.0 °F 41.0 °F 51% 29.65 in 10.0 mi West 12.7 mph - N/A   Overcast
9:55 AM 59.0 °F 39.0 °F 48% 29.66 in 10.0 mi WNW 9.2 mph - N/A   Overcast
10:55 AM 61.0 °F 37.9 °F 42% 29.65 in 10.0 mi Calm Calm - N/A   Overcast
11:55 AM 61.0 °F 43.0 °F 52% 29.63 in 10.0 mi ESE 6.9 mph - N/A   Overcast
12:55 PM 64.0 °F 43.0 °F 46% 29.60 in 10.0 mi ESE 11.5 mph 17.3 mph N/A   Overcast
1:55 PM 66.0 °F 39.0 °F 37% 29.58 in 10.0 mi SSE 10.4 mph - N/A   Overcast
2:55 PM 61.0 °F 45.0 °F 56% 29.61 in 10.0 mi South 6.9 mph 17.3 mph 0.01 in Rain Light Rain
3:55 PM 60.1 °F 48.9 °F 67% 29.61 in 10.0 mi Calm Calm - 0.01 in Rain Light Rain
4:55 PM 57.9 °F 50.0 °F 75% 29.62 in 10.0 mi WNW 6.9 mph - 0.00 in   Overcast
5:55 PM 57.9 °F 48.0 °F 70% 29.63 in 10.0 mi NNW 9.2 mph - 0.00 in   Mostly Cloudy
6:55 PM 55.0 °F 46.9 °F 74% 29.63 in 10.0 mi West 4.6 mph - N/A   Partly Cloudy
7:55 PM 54.0 °F 46.9 °F 77% 29.64 in 10.0 mi Calm Calm - N/A   Clear
8:55 PM 52.0 °F 45.0 °F 77% 29.66 in 10.0 mi NNW 4.6 mph - N/A   Clear
9:55 PM 48.9 °F 46.0 °F 90% 29.68 in 10.0 mi ENE 6.9 mph - N/A   Clear
10:55 PM 50.0 °F 44.1 °F 80% 29.70 in 10.0 mi Variable 3.5 mph - N/A   Clear
11:55 PM 48.9 °F 44.1 °F 83% 29.71 in 10.0 mi Calm Calm - N/A   Partly Cloudy